owner,sensor,date,latitude,longitude,vertical_datum,wind_speed,wind_to_direction,wind_speed_of_gust,qcFlag 
TCOON,ioos:station:TCOON:005:1,2008-11-01T00:00:00Z,27.6346,-97.2370,0.0,3.2,99.0,99.0,'11111222,11111222,11144222' 
TCOON,ioos:station:TCOON:005:1,2008-11-01T01:00:00Z,27.6346,-97.2370,0.0,3.9,95.0,99.0,'11111222,11111222,11144222' 
TCOON,ioos:station:TCOON:005:1,2008-11-01T03:00:00Z,27.6346,-97.2370,0.0,2.8,85.0,99.0,'11111222,11111222,11144222' 
TCOON,ioos:station:TCOON:005:1,2008-11-01T04:00:00Z,27.6346,-97.2370,0.0,2.1,110.0,99.0,'11111222,11111222,11144222' 
TCOON,ioos:station:TCOON:005:1,2008-11-01T05:00:00Z,27.6346,-97.2370,0.0,2.5,122.0,99.0,'11111222,11111222,11144222' 
TCOON,ioos:station:TCOON:005:1,2008-11-01T06:00:00Z,27.6346,-97.2370,0.0,2.5,112.0,99.0,'11111222,11111222,11144222' 
TCOON,ioos:station:TCOON:005:1,2008-11-01T07:00:00Z,27.6346,-97.2370,0.0,2.1,112.0,99.0,'11111222,11111222,11144222' 
TCOON,ioos:station:TCOON:005:1,2008-11-01T08:00:00Z,27.6346,-97.2370,0.0,2.1,109.0,99.0,'11111222,11111222,11144222' 
TCOON,ioos:station:TCOON:005:1,2008-11-01T09:00:00Z,27.6346,-97.2370,0.0,0.9,103.0,99.0,'11111222,11111222,11144222' 
TCOON,ioos:station:TCOON:005:1,2008-11-01T10:00:00Z,27.6346,-97.2370,0.0,1.1,7.0,99.0,'11111222,11111222,11144222' 
TCOON,ioos:station:TCOON:005:1,2008-11-01T11:00:00Z,27.6346,-97.2370,0.0,1.2,19.0,99.0,'11111222,11111222,11144222' 
TCOON,ioos:station:TCOON:005:1,2008-11-01T12:00:00Z,27.6346,-97.2370,0.0,2.1,27.0,99.0,'11111222,11111222,11144222' 
TCOON,ioos:station:TCOON:005:1,2008-11-01T13:00:00Z,27.6346,-97.2370,0.0,1.9,21.0,99.0,'11111222,11111222,11144222' 
TCOON,ioos:station:TCOON:005:1,2008-11-01T14:00:00Z,27.6346,-97.2370,0.0,2.7,29.0,99.0,'11111222,11111222,11144222' 
TCOON,ioos:station:TCOON:005:1,2008-11-01T15:00:00Z,27.6346,-97.2370,0.0,1.9,25.0,99.0,'11111222,11111222,11144222' 
TCOON,ioos:station:TCOON:005:1,2008-11-01T16:00:00Z,27.6346,-97.2370,0.0,2.4,68.0,99.0,'11111222,11111222,11144222' 
TCOON,ioos:station:TCOON:005:1,2008-11-01T17:00:00Z,27.6346,-97.2370,0.0,3.6,81.0,99.0,'11111222,11111222,11144222' 
TCOON,ioos:station:TCOON:005:1,2008-11-01T18:00:00Z,27.6346,-97.2370,0.0,3.4,98.0,99.0,'11111222,11111222,11144222' 
TCOON,ioos:station:TCOON:005:1,2008-11-01T19:00:00Z,27.6346,-97.2370,0.0,4.1,97.0,99.0,'11111222,11111222,11144222' 
TCOON,ioos:station:TCOON:005:1,2008-11-01T20:00:00Z,27.6346,-97.2370,0.0,4.2,89.0,99.0,'11111222,11111222,11144222' 
TCOON,ioos:station:TCOON:005:1,2008-11-01T21:00:00Z,27.6346,-97.2370,0.0,4.2,105.0,99.0,'11111222,11111222,11144222' 
TCOON,ioos:station:TCOON:005:1,2008-11-01T22:00:00Z,27.6346,-97.2370,0.0,5.0,105.0,99.0,'11111222,11111222,11144222' 
TCOON,ioos:station:TCOON:005:1,2008-11-01T23:00:00Z,27.6346,-97.2370,0.0,4.6,99.0,99.0,'11111222,11111222,11144222' 
TCOON,ioos:station:TCOON:005:1,2008-11-02T00:00:00Z,27.6346,-97.2370,0.0,4.0,103.0,99.0,'11111222,11111222,11144222' 
TCOON,ioos:station:TCOON:005:1,2008-11-02T01:00:00Z,27.6346,-97.2370,0.0,3.1,119.0,99.0,'11111222,11111222,11144222' 
TCOON,ioos:station:TCOON:005:1,2008-11-02T02:00:00Z,27.6346,-97.2370,0.0,2.2,143.0,99.0,'11111222,11111222,11144222' 
TCOON,ioos:station:TCOON:005:1,2008-11-02T03:00:00Z,27.6346,-97.2370,0.0,2.1,146.0,99.0,'11111222,11111222,11144222' 
TCOON,ioos:station:TCOON:005:1,2008-11-02T04:00:00Z,27.6346,-97.2370,0.0,2.3,134.0,99.0,'11111222,11111222,11144222' 
TCOON,ioos:station:TCOON:005:1,2008-11-02T05:00:00Z,27.6346,-97.2370,0.0,1.8,133.0,99.0,'11111222,11111222,11144222' 
TCOON,ioos:station:TCOON:005:1,2008-11-02T06:00:00Z,27.6346,-97.2370,0.0,1.5,146.0,99.0,'11111222,11111222,11144222' 
TCOON,ioos:station:TCOON:005:1,2008-11-02T07:00:00Z,27.6346,-97.2370,0.0,2.0,131.0,99.0,'11111222,11111222,11144222' 
TCOON,ioos:station:TCOON:005:1,2008-11-02T08:00:00Z,27.6346,-97.2370,0.0,1.7,151.0,99.0,'11111222,11111222,11144222' 
TCOON,ioos:station:TCOON:005:1,2008-11-02T09:00:00Z,27.6346,-97.2370,0.0,2.2,132.0,99.0,'11111222,11111222,11144222' 
TCOON,ioos:station:TCOON:005:1,2008-11-02T10:00:00Z,27.6346,-97.2370,0.0,2.4,131.0,99.0,'11111222,11111222,11144222' 
TCOON,ioos:station:TCOON:005:1,2008-11-02T11:00:00Z,27.6346,-97.2370,0.0,2.3,124.0,99.0,'11111222,11111222,11144222' 
TCOON,ioos:station:TCOON:005:1,2008-11-02T12:00:00Z,27.6346,-97.2370,0.0,2.1,123.0,99.0,'11111222,11111222,11144222' 
TCOON,ioos:station:TCOON:005:1,2008-11-02T13:00:00Z,27.6346,-97.2370,0.0,2.0,123.0,99.0,'11111222,11111222,11144222' 
TCOON,ioos:station:TCOON:005:1,2008-11-02T14:00:00Z,27.6346,-97.2370,0.0,2.0,114.0,99.0,'11111222,11111222,11144222' 
TCOON,ioos:station:TCOON:005:1,2008-11-02T15:00:00Z,27.6346,-97.2370,0.0,2.5,82.0,99.0,'11111222,11111222,11144222' 
TCOON,ioos:station:TCOON:005:1,2008-11-02T16:00:00Z,27.6346,-97.2370,0.0,2.8,91.0,99.0,'11111222,11111222,11144222' 
TCOON,ioos:station:TCOON:005:1,2008-11-02T17:00:00Z,27.6346,-97.2370,0.0,2.1,96.0,99.0,'11111222,11111222,11144222' 
TCOON,ioos:station:TCOON:005:1,2008-11-02T18:00:00Z,27.6346,-97.2370,0.0,3.6,74.0,99.0,'11111222,11111222,11144222' 
TCOON,ioos:station:TCOON:005:1,2008-11-02T19:00:00Z,27.6346,-97.2370,0.0,3.6,97.0,99.0,'11111222,11111222,11144222' 
TCOON,ioos:station:TCOON:005:1,2008-11-02T20:00:00Z,27.6346,-97.2370,0.0,4.2,108.0,99.0,'11111222,11111222,11144222' 
TCOON,ioos:station:TCOON:005:1,2008-11-02T21:00:00Z,27.6346,-97.2370,0.0,4.7,90.0,99.0,'11111222,11111222,11144222' 
TCOON,ioos:station:TCOON:005:1,2008-11-02T22:00:00Z,27.6346,-97.2370,0.0,4.0,95.0,99.0,'11111222,11111222,11144222' 
TCOON,ioos:station:TCOON:005:1,2008-11-02T23:00:00Z,27.6346,-97.2370,0.0,5.0,110.0,99.0,'11111222,11111222,11144222' 
TCOON,ioos:station:TCOON:005:1,2008-11-03T00:00:00Z,27.6346,-97.2370,0.0,4.7,114.0,99.0,'11111222,11111222,11144222' 
TCOON,ioos:station:TCOON:005:1,2008-11-03T01:00:00Z,27.6346,-97.2370,0.0,5.4,115.0,99.0,'11111222,11111222,11144222' 
TCOON,ioos:station:TCOON:005:1,2008-11-03T02:00:00Z,27.6346,-97.2370,0.0,5.5,115.0,99.0,'11111222,11111222,11144222' 
TCOON,ioos:station:TCOON:005:1,2008-11-03T03:00:00Z,27.6346,-97.2370,0.0,4.3,129.0,99.0,'11111222,11111222,11144222' 
TCOON,ioos:station:TCOON:005:1,2008-11-03T04:00:00Z,27.6346,-97.2370,0.0,6.1,127.0,99.0,'11111222,11111222,11144222' 
TCOON,ioos:station:TCOON:005:1,2008-11-03T05:00:00Z,27.6346,-97.2370,0.0,5.1,121.0,99.0,'11111222,11111222,11144222' 
TCOON,ioos:station:TCOON:005:1,2008-11-03T06:00:00Z,27.6346,-97.2370,0.0,4.4,131.0,99.0,'11111222,11111222,11144222' 
TCOON,ioos:station:TCOON:005:1,2008-11-03T07:00:00Z,27.6346,-97.2370,0.0,3.5,128.0,99.0,'11111222,11111222,11144222' 
TCOON,ioos:station:TCOON:005:1,2008-11-03T08:00:00Z,27.6346,-97.2370,0.0,3.4,136.0,99.0,'11111222,11111222,11144222' 
TCOON,ioos:station:TCOON:005:1,2008-11-03T09:00:00Z,27.6346,-97.2370,0.0,2.5,156.0,99.0,'11111222,11111222,11144222' 
TCOON,ioos:station:TCOON:005:1,2008-11-03T10:00:00Z,27.6346,-97.2370,0.0,1.8,156.0,99.0,'11111222,11111222,11144222' 
TCOON,ioos:station:TCOON:005:1,2008-11-03T11:00:00Z,27.6346,-97.2370,0.0,2.3,144.0,99.0,'11111222,11111222,11144222' 
TCOON,ioos:station:TCOON:005:1,2008-11-03T12:00:00Z,27.6346,-97.2370,0.0,2.2,136.0,99.0,'11111222,11111222,11144222' 
TCOON,ioos:station:TCOON:005:1,2008-11-03T13:00:00Z,27.6346,-97.2370,0.0,2.5,130.0,99.0,'11111222,11111222,11144222' 
TCOON,ioos:station:TCOON:005:1,2008-11-03T14:00:00Z,27.6346,-97.2370,0.0,3.2,130.0,99.0,'11111222,11111222,11144222' 
TCOON,ioos:station:TCOON:005:1,2008-11-03T15:00:00Z,27.6346,-97.2370,0.0,4.7,111.0,99.0,'11111222,11111222,11144222' 
TCOON,ioos:station:TCOON:005:1,2008-11-03T16:00:00Z,27.6346,-97.2370,0.0,6.3,98.0,99.0,'11111222,11111222,11144222' 
TCOON,ioos:station:TCOON:005:1,2008-11-03T17:00:00Z,27.6346,-97.2370,0.0,5.9,105.0,99.0,'11111222,11111222,11144222' 
TCOON,ioos:station:TCOON:005:1,2008-11-03T18:00:00Z,27.6346,-97.2370,0.0,5.6,112.0,99.0,'11111222,11111222,11144222' 
TCOON,ioos:station:TCOON:005:1,2008-11-03T19:00:00Z,27.6346,-97.2370,0.0,6.3,108.0,99.0,'11111222,11111222,11144222' 
TCOON,ioos:station:TCOON:005:1,2008-11-03T20:00:00Z,27.6346,-97.2370,0.0,6.8,112.0,99.0,'11111222,11111222,11144222' 
TCOON,ioos:station:TCOON:005:1,2008-11-03T21:00:00Z,27.6346,-97.2370,0.0,7.4,103.0,99.0,'11111222,11111222,11144222' 
TCOON,ioos:station:TCOON:005:1,2008-11-03T22:00:00Z,27.6346,-97.2370,0.0,7.8,106.0,99.0,'11111222,11111222,11144222' 
TCOON,ioos:station:TCOON:005:1,2008-11-03T23:00:00Z,27.6346,-97.2370,0.0,7.3,100.0,99.0,'11111222,11111222,11144222' 
TCOON,ioos:station:TCOON:005:1,2008-11-04T00:00:00Z,27.6346,-97.2370,0.0,7.3,114.0,99.0,'11111222,11111222,11144222' 
TCOON,ioos:station:TCOON:005:1,2008-11-04T01:00:00Z,27.6346,-97.2370,0.0,6.8,114.0,99.0,'11111222,11111222,11144222' 
TCOON,ioos:station:TCOON:005:1,2008-11-04T02:00:00Z,27.6346,-97.2370,0.0,5.9,115.0,99.0,'11111222,11111222,11144222' 
TCOON,ioos:station:TCOON:005:1,2008-11-04T03:00:00Z,27.6346,-97.2370,0.0,4.5,130.0,99.0,'11111222,11111222,11144222' 
TCOON,ioos:station:TCOON:005:1,2008-11-04T04:00:00Z,27.6346,-97.2370,0.0,5.1,131.0,99.0,'11111222,11111222,11144222' 
TCOON,ioos:station:TCOON:005:1,2008-11-04T05:00:00Z,27.6346,-97.2370,0.0,3.9,141.0,99.0,'11111222,11111222,11144222' 
TCOON,ioos:station:TCOON:005:1,2008-11-04T06:00:00Z,27.6346,-97.2370,0.0,5.0,139.0,99.0,'11111222,11111222,11144222' 
TCOON,ioos:station:TCOON:005:1,2008-11-04T07:00:00Z,27.6346,-97.2370,0.0,4.9,142.0,99.0,'11111222,11111222,11144222' 
TCOON,ioos:station:TCOON:005:1,2008-11-04T08:00:00Z,27.6346,-97.2370,0.0,5.3,139.0,99.0,'11111222,11111222,11144222' 
TCOON,ioos:station:TCOON:005:1,2008-11-04T09:00:00Z,27.6346,-97.2370,0.0,4.8,143.0,99.0,'11111222,11111222,11144222' 
TCOON,ioos:station:TCOON:005:1,2008-11-04T10:00:00Z,27.6346,-97.2370,0.0,4.6,147.0,99.0,'11111222,11111222,11144222' 
TCOON,ioos:station:TCOON:005:1,2008-11-04T11:00:00Z,27.6346,-97.2370,0.0,4.8,141.0,99.0,'11111222,11111222,11144222' 
TCOON,ioos:station:TCOON:005:1,2008-11-04T12:00:00Z,27.6346,-97.2370,0.0,5.0,137.0,99.0,'11111222,11111222,11144222' 
TCOON,ioos:station:TCOON:005:1,2008-11-04T13:00:00Z,27.6346,-97.2370,0.0,4.4,134.0,99.0,'11111222,11111222,11144222' 
TCOON,ioos:station:TCOON:005:1,2008-11-04T14:00:00Z,27.6346,-97.2370,0.0,3.8,134.0,99.0,'11111222,11111222,11144222' 
TCOON,ioos:station:TCOON:005:1,2008-11-04T15:00:00Z,27.6346,-97.2370,0.0,6.1,139.0,99.0,'11111222,11111222,11144222' 
TCOON,ioos:station:TCOON:005:1,2008-11-04T16:00:00Z,27.6346,-97.2370,0.0,6.0,132.0,99.0,'11111222,11111222,11144222' 
TCOON,ioos:station:TCOON:005:1,2008-11-04T17:00:00Z,27.6346,-97.2370,0.0,7.7,143.0,99.0,'11111222,11111222,11144222' 
TCOON,ioos:station:TCOON:005:1,2008-11-04T18:00:00Z,27.6346,-97.2370,0.0,6.7,141.0,99.0,'11111222,11111222,11144222' 
TCOON,ioos:station:TCOON:005:1,2008-11-04T19:00:00Z,27.6346,-97.2370,0.0,7.4,143.0,99.0,'11111222,11111222,11144222' 
TCOON,ioos:station:TCOON:005:1,2008-11-04T20:00:00Z,27.6346,-97.2370,0.0,7.3,139.0,99.0,'11111222,11111222,11144222' 
TCOON,ioos:station:TCOON:005:1,2008-11-04T21:00:00Z,27.6346,-97.2370,0.0,7.2,128.0,99.0,'11111222,11111222,11144222' 
TCOON,ioos:station:TCOON:005:1,2008-11-04T22:00:00Z,27.6346,-97.2370,0.0,5.3,139.0,99.0,'11111222,11111222,11144222' 
TCOON,ioos:station:TCOON:005:1,2008-11-04T23:00:00Z,27.6346,-97.2370,0.0,5.9,141.0,99.0,'11111222,11111222,11144222' 
TCOON,ioos:station:TCOON:005:1,2008-11-05T00:00:00Z,27.6346,-97.2370,0.0,6.1,142.0,99.0,'11111222,11111222,11144222' 
TCOON,ioos:station:TCOON:005:1,2008-11-05T01:00:00Z,27.6346,-97.2370,0.0,5.1,137.0,99.0,'11111222,11111222,11144222' 
TCOON,ioos:station:TCOON:005:1,2008-11-05T02:00:00Z,27.6346,-97.2370,0.0,5.0,143.0,99.0,'11111222,11111222,11144222' 
TCOON,ioos:station:TCOON:005:1,2008-11-05T03:00:00Z,27.6346,-97.2370,0.0,4.6,144.0,99.0,'11111222,11111222,11144222' 
TCOON,ioos:station:TCOON:005:1,2008-11-05T04:00:00Z,27.6346,-97.2370,0.0,5.1,147.0,99.0,'11111222,11111222,11144222' 
TCOON,ioos:station:TCOON:005:1,2008-11-05T05:00:00Z,27.6346,-97.2370,0.0,5.2,155.0,99.0,'11111222,11111222,11144222' 
TCOON,ioos:station:TCOON:005:1,2008-11-05T06:00:00Z,27.6346,-97.2370,0.0,5.2,155.0,99.0,'11111222,11111222,11144222' 
TCOON,ioos:station:TCOON:005:1,2008-11-05T07:00:00Z,27.6346,-97.2370,0.0,5.6,156.0,99.0,'11111222,11111222,11144222' 
TCOON,ioos:station:TCOON:005:1,2008-11-05T08:00:00Z,27.6346,-97.2370,0.0,5.5,158.0,99.0,'11111222,11111222,11144222' 
TCOON,ioos:station:TCOON:005:1,2008-11-05T09:00:00Z,27.6346,-97.2370,0.0,4.8,156.0,99.0,'11111222,11111222,11144222' 
TCOON,ioos:station:TCOON:005:1,2008-11-05T10:00:00Z,27.6346,-97.2370,0.0,6.0,155.0,99.0,'11111222,11111222,11144222' 
TCOON,ioos:station:TCOON:005:1,2008-11-05T11:00:00Z,27.6346,-97.2370,0.0,5.6,155.0,99.0,'11111222,11111222,11144222' 
TCOON,ioos:station:TCOON:005:1,2008-11-05T12:00:00Z,27.6346,-97.2370,0.0,5.3,157.0,99.0,'11111222,11111222,11144222' 
TCOON,ioos:station:TCOON:005:1,2008-11-05T13:00:00Z,27.6346,-97.2370,0.0,4.8,157.0,99.0,'11111222,11111222,11144222' 
TCOON,ioos:station:TCOON:005:1,2008-11-05T14:00:00Z,27.6346,-97.2370,0.0,5.8,158.0,99.0,'11111222,11111222,11144222' 
TCOON,ioos:station:TCOON:005:1,2008-11-05T15:00:00Z,27.6346,-97.2370,0.0,6.3,158.0,99.0,'11111222,11111222,11144222' 
TCOON,ioos:station:TCOON:005:1,2008-11-05T16:00:00Z,27.6346,-97.2370,0.0,6.0,151.0,99.0,'11111222,11111222,11144222' 
TCOON,ioos:station:TCOON:005:1,2008-11-05T17:00:00Z,27.6346,-97.2370,0.0,7.9,151.0,99.0,'11111222,11111222,11144222' 
TCOON,ioos:station:TCOON:005:1,2008-11-05T18:00:00Z,27.6346,-97.2370,0.0,7.5,151.0,99.0,'11111222,11111222,11144222' 
TCOON,ioos:station:TCOON:005:1,2008-11-05T19:00:00Z,27.6346,-97.2370,0.0,7.3,157.0,99.0,'11111222,11111222,11144222' 
TCOON,ioos:station:TCOON:005:1,2008-11-05T20:00:00Z,27.6346,-97.2370,0.0,7.4,150.0,99.0,'11111222,11111222,11144222' 
TCOON,ioos:station:TCOON:005:1,2008-11-05T21:00:00Z,27.6346,-97.2370,0.0,7.9,146.0,99.0,'11111222,11111222,11144222' 
TCOON,ioos:station:TCOON:005:1,2008-11-05T22:00:00Z,27.6346,-97.2370,0.0,8.6,149.0,99.0,'11111222,11111222,11144222' 
TCOON,ioos:station:TCOON:005:1,2008-11-05T23:00:00Z,27.6346,-97.2370,0.0,7.3,146.0,99.0,'11111222,11111222,11144222' 
TCOON,ioos:station:TCOON:005:1,2008-11-06T00:00:00Z,27.6346,-97.2370,0.0,6.4,152.0,99.0,'11111222,11111222,11144222' 
TCOON,ioos:station:TCOON:005:1,2008-11-06T01:00:00Z,27.6346,-97.2370,0.0,7.2,155.0,99.0,'11111222,11111222,11144222' 
TCOON,ioos:station:TCOON:005:1,2008-11-06T02:00:00Z,27.6346,-97.2370,0.0,6.1,154.0,99.0,'11111222,11111222,11144222' 
TCOON,ioos:station:TCOON:005:1,2008-11-06T03:00:00Z,27.6346,-97.2370,0.0,5.4,156.0,99.0,'11111222,11111222,11144222' 
TCOON,ioos:station:TCOON:005:1,2008-11-06T04:00:00Z,27.6346,-97.2370,0.0,5.4,158.0,99.0,'11111222,11111222,11144222' 
TCOON,ioos:station:TCOON:005:1,2008-11-06T05:00:00Z,27.6346,-97.2370,0.0,5.7,159.0,99.0,'11111222,11111222,11144222' 
TCOON,ioos:station:TCOON:005:1,2008-11-06T06:00:00Z,27.6346,-97.2370,0.0,6.4,164.0,99.0,'11111222,11111222,11144222' 
TCOON,ioos:station:TCOON:005:1,2008-11-06T07:00:00Z,27.6346,-97.2370,0.0,6.0,165.0,99.0,'11111222,11111222,11144222' 
TCOON,ioos:station:TCOON:005:1,2008-11-06T08:00:00Z,27.6346,-97.2370,0.0,5.4,173.0,99.0,'11111222,11111222,11144222' 
TCOON,ioos:station:TCOON:005:1,2008-11-06T09:00:00Z,27.6346,-97.2370,0.0,4.8,177.0,99.0,'11111222,11111222,11144222' 
TCOON,ioos:station:TCOON:005:1,2008-11-06T10:00:00Z,27.6346,-97.2370,0.0,5.8,173.0,99.0,'11111222,11111222,11144222' 
TCOON,ioos:station:TCOON:005:1,2008-11-06T11:00:00Z,27.6346,-97.2370,0.0,4.2,174.0,99.0,'11111222,11111222,11144222' 
TCOON,ioos:station:TCOON:005:1,2008-11-06T12:00:00Z,27.6346,-97.2370,0.0,3.0,160.0,99.0,'11111222,11111222,11144222' 
TCOON,ioos:station:TCOON:005:1,2008-11-06T13:00:00Z,27.6346,-97.2370,0.0,2.7,163.0,99.0,'11111222,11111222,11144222' 
TCOON,ioos:station:TCOON:005:1,2008-11-06T14:00:00Z,27.6346,-97.2370,0.0,3.6,162.0,99.0,'11111222,11111222,11144222' 
TCOON,ioos:station:TCOON:005:1,2008-11-06T15:00:00Z,27.6346,-97.2370,0.0,5.5,160.0,99.0,'11111222,11111222,11144222' 
TCOON,ioos:station:TCOON:005:1,2008-11-06T16:00:00Z,27.6346,-97.2370,0.0,2.2,213.0,99.0,'11111222,11111222,11144222' 
TCOON,ioos:station:TCOON:005:1,2008-11-06T17:00:00Z,27.6346,-97.2370,0.0,3.3,156.0,99.0,'11111222,11111222,11144222' 
TCOON,ioos:station:TCOON:005:1,2008-11-06T18:00:00Z,27.6346,-97.2370,0.0,3.4,117.0,99.0,'11111222,11111222,11144222' 
TCOON,ioos:station:TCOON:005:1,2008-11-06T19:00:00Z,27.6346,-97.2370,0.0,3.8,130.0,99.0,'11111222,11111222,11144222' 
TCOON,ioos:station:TCOON:005:1,2008-11-06T20:00:00Z,27.6346,-97.2370,0.0,5.3,139.0,99.0,'11111222,11111222,11144222' 
TCOON,ioos:station:TCOON:005:1,2008-11-06T21:00:00Z,27.6346,-97.2370,0.0,5.3,136.0,99.0,'11111222,11111222,11144222' 
TCOON,ioos:station:TCOON:005:1,2008-11-06T22:00:00Z,27.6346,-97.2370,0.0,4.1,136.0,99.0,'11111222,11111222,11144222' 
TCOON,ioos:station:TCOON:005:1,2008-11-06T23:00:00Z,27.6346,-97.2370,0.0,4.4,144.0,99.0,'11111222,11111222,11144222' 
TCOON,ioos:station:TCOON:005:1,2008-11-07T00:00:00Z,27.6346,-97.2370,0.0,2.8,158.0,99.0,'11111222,11111222,11144222' 
TCOON,ioos:station:TCOON:005:1,2008-11-07T01:00:00Z,27.6346,-97.2370,0.0,1.9,157.0,99.0,'11111222,11111222,11144222' 
TCOON,ioos:station:TCOON:005:1,2008-11-07T02:00:00Z,27.6346,-97.2370,0.0,0.7,157.0,99.0,'11111222,11111222,11144222' 
TCOON,ioos:station:TCOON:005:1,2008-11-07T03:00:00Z,27.6346,-97.2370,0.0,0.5,160.0,99.0,'11111222,11111222,11144222' 
TCOON,ioos:station:TCOON:005:1,2008-11-07T04:00:00Z,27.6346,-97.2370,0.0,0.4,22.0,99.0,'11111222,11111222,11144222' 
TCOON,ioos:station:TCOON:005:1,2008-11-07T05:00:00Z,27.6346,-97.2370,0.0,1.8,114.0,99.0,'11111222,11111222,11144222' 
TCOON,ioos:station:TCOON:005:1,2008-11-07T06:00:00Z,27.6346,-97.2370,0.0,1.7,95.0,99.0,'11111222,11111222,11144222' 
TCOON,ioos:station:TCOON:005:1,2008-11-07T07:00:00Z,27.6346,-97.2370,0.0,1.5,45.0,99.0,'11111222,11111222,11144222' 
TCOON,ioos:station:TCOON:005:1,2008-11-07T08:00:00Z,27.6346,-97.2370,0.0,2.3,63.0,99.0,'11111222,11111222,11144222' 
TCOON,ioos:station:TCOON:005:1,2008-11-07T09:00:00Z,27.6346,-97.2370,0.0,3.7,59.0,99.0,'11111222,11111222,11144222' 
TCOON,ioos:station:TCOON:005:1,2008-11-07T10:00:00Z,27.6346,-97.2370,0.0,5.8,31.0,99.0,'11111222,11111222,11144222' 
TCOON,ioos:station:TCOON:005:1,2008-11-07T11:00:00Z,27.6346,-97.2370,0.0,9.6,24.0,99.0,'11111222,11111222,11144222' 
TCOON,ioos:station:TCOON:005:1,2008-11-07T12:00:00Z,27.6346,-97.2370,0.0,10.0,24.0,99.0,'11111222,11111222,11144222' 
TCOON,ioos:station:TCOON:005:1,2008-11-07T13:00:00Z,27.6346,-97.2370,0.0,8.7,35.0,99.0,'11111222,11111222,11144222' 
TCOON,ioos:station:TCOON:005:1,2008-11-07T14:00:00Z,27.6346,-97.2370,0.0,6.2,15.0,99.0,'11111222,11111222,11144222' 
TCOON,ioos:station:TCOON:005:1,2008-11-07T15:00:00Z,27.6346,-97.2370,0.0,10.3,31.0,99.0,'11111222,11111222,11144222' 
TCOON,ioos:station:TCOON:005:1,2008-11-07T16:00:00Z,27.6346,-97.2370,0.0,5.7,42.0,99.0,'11111222,11111222,11144222' 
TCOON,ioos:station:TCOON:005:1,2008-11-07T17:00:00Z,27.6346,-97.2370,0.0,9.5,49.0,99.0,'11111222,11111222,11144222' 
TCOON,ioos:station:TCOON:005:1,2008-11-07T18:00:00Z,27.6346,-97.2370,0.0,9.0,45.0,99.0,'11111222,11111222,11144222' 
TCOON,ioos:station:TCOON:005:1,2008-11-07T19:00:00Z,27.6346,-97.2370,0.0,10.9,51.0,99.0,'11111222,11111222,11144222' 
TCOON,ioos:station:TCOON:005:1,2008-11-07T20:00:00Z,27.6346,-97.2370,0.0,9.9,58.0,99.0,'11111222,11111222,11144222' 
TCOON,ioos:station:TCOON:005:1,2008-11-07T21:00:00Z,27.6346,-97.2370,0.0,8.9,65.0,99.0,'11111222,11111222,11144222' 
TCOON,ioos:station:TCOON:005:1,2008-11-07T22:00:00Z,27.6346,-97.2370,0.0,8.4,72.0,99.0,'11111222,11111222,11144222' 
TCOON,ioos:station:TCOON:005:1,2008-11-07T23:00:00Z,27.6346,-97.2370,0.0,7.2,68.0,99.0,'11111222,11111222,11144222' 
TCOON,ioos:station:TCOON:005:1,2008-11-08T00:00:00Z,27.6346,-97.2370,0.0,6.7,75.0,99.0,'11111222,11111222,11144222' 
TCOON,ioos:station:TCOON:005:1,2008-11-08T01:00:00Z,27.6346,-97.2370,0.0,4.8,73.0,99.0,'11111222,11111222,11144222' 
TCOON,ioos:station:TCOON:005:1,2008-11-08T02:00:00Z,27.6346,-97.2370,0.0,4.2,73.0,99.0,'11111222,11111222,11144222' 
TCOON,ioos:station:TCOON:005:1,2008-11-08T03:00:00Z,27.6346,-97.2370,0.0,3.7,77.0,99.0,'11111222,11111222,11144222' 
TCOON,ioos:station:TCOON:005:1,2008-11-08T04:00:00Z,27.6346,-97.2370,0.0,3.7,58.0,99.0,'11111222,11111222,11144222' 
TCOON,ioos:station:TCOON:005:1,2008-11-08T05:00:00Z,27.6346,-97.2370,0.0,3.9,61.0,99.0,'11111222,11111222,11144222' 
TCOON,ioos:station:TCOON:005:1,2008-11-08T06:00:00Z,27.6346,-97.2370,0.0,3.4,59.0,99.0,'11111222,11111222,11144222' 
TCOON,ioos:station:TCOON:005:1,2008-11-08T07:00:00Z,27.6346,-97.2370,0.0,3.2,70.0,99.0,'11111222,11111222,11144222' 
TCOON,ioos:station:TCOON:005:1,2008-11-08T08:00:00Z,27.6346,-97.2370,0.0,3.2,70.0,99.0,'11111222,11111222,11144222' 
TCOON,ioos:station:TCOON:005:1,2008-11-08T09:00:00Z,27.6346,-97.2370,0.0,3.3,67.0,99.0,'11111222,11111222,11144222' 
TCOON,ioos:station:TCOON:005:1,2008-11-08T10:00:00Z,27.6346,-97.2370,0.0,4.4,79.0,99.0,'11111222,11111222,11144222' 
TCOON,ioos:station:TCOON:005:1,2008-11-08T11:00:00Z,27.6346,-97.2370,0.0,3.9,74.0,99.0,'11111222,11111222,11144222' 
TCOON,ioos:station:TCOON:005:1,2008-11-08T12:00:00Z,27.6346,-97.2370,0.0,3.9,72.0,99.0,'11111222,11111222,11144222' 
TCOON,ioos:station:TCOON:005:1,2008-11-08T13:00:00Z,27.6346,-97.2370,0.0,2.6,71.0,99.0,'11111222,11111222,11144222' 
TCOON,ioos:station:TCOON:005:1,2008-11-08T14:00:00Z,27.6346,-97.2370,0.0,3.7,71.0,99.0,'11111222,11111222,11144222' 
TCOON,ioos:station:TCOON:005:1,2008-11-08T15:00:00Z,27.6346,-97.2370,0.0,3.6,68.0,99.0,'11111222,11111222,11144222' 
TCOON,ioos:station:TCOON:005:1,2008-11-08T16:00:00Z,27.6346,-97.2370,0.0,3.6,68.0,99.0,'11111222,11111222,11144222' 
TCOON,ioos:station:TCOON:005:1,2008-11-08T17:00:00Z,27.6346,-97.2370,0.0,3.8,83.0,99.0,'11111222,11111222,11144222' 
TCOON,ioos:station:TCOON:005:1,2008-11-08T18:00:00Z,27.6346,-97.2370,0.0,4.1,88.0,99.0,'11111222,11111222,11144222' 
TCOON,ioos:station:TCOON:005:1,2008-11-08T19:00:00Z,27.6346,-97.2370,0.0,4.4,70.0,99.0,'11111222,11111222,11144222' 
TCOON,ioos:station:TCOON:005:1,2008-11-08T20:00:00Z,27.6346,-97.2370,0.0,5.2,95.0,99.0,'11111222,11111222,11144222' 
TCOON,ioos:station:TCOON:005:1,2008-11-08T21:00:00Z,27.6346,-97.2370,0.0,5.1,86.0,99.0,'11111222,11111222,11144222' 
TCOON,ioos:station:TCOON:005:1,2008-11-08T22:00:00Z,27.6346,-97.2370,0.0,5.2,110.0,99.0,'11111222,11111222,11144222' 
TCOON,ioos:station:TCOON:005:1,2008-11-08T23:00:00Z,27.6346,-97.2370,0.0,5.2,114.0,99.0,'11111222,11111222,11144222' 
TCOON,ioos:station:TCOON:005:1,2008-11-09T00:00:00Z,27.6346,-97.2370,0.0,4.4,122.0,99.0,'11111222,11111222,11144222' 
TCOON,ioos:station:TCOON:005:1,2008-11-09T01:00:00Z,27.6346,-97.2370,0.0,4.3,124.0,99.0,'11111222,11111222,11144222' 
TCOON,ioos:station:TCOON:005:1,2008-11-09T02:00:00Z,27.6346,-97.2370,0.0,3.8,129.0,99.0,'11111222,11111222,11144222' 
TCOON,ioos:station:TCOON:005:1,2008-11-09T03:00:00Z,27.6346,-97.2370,0.0,3.7,127.0,99.0,'11111222,11111222,11144222' 
TCOON,ioos:station:TCOON:005:1,2008-11-09T04:00:00Z,27.6346,-97.2370,0.0,3.9,139.0,99.0,'11111222,11111222,11144222' 
TCOON,ioos:station:TCOON:005:1,2008-11-09T05:00:00Z,27.6346,-97.2370,0.0,3.5,132.0,99.0,'11111222,11111222,11144222' 
TCOON,ioos:station:TCOON:005:1,2008-11-09T06:00:00Z,27.6346,-97.2370,0.0,4.1,125.0,99.0,'11111222,11111222,11144222' 
TCOON,ioos:station:TCOON:005:1,2008-11-09T07:00:00Z,27.6346,-97.2370,0.0,4.4,125.0,99.0,'11111222,11111222,11144222' 
TCOON,ioos:station:TCOON:005:1,2008-11-09T08:00:00Z,27.6346,-97.2370,0.0,4.4,140.0,99.0,'11111222,11111222,11144222' 
TCOON,ioos:station:TCOON:005:1,2008-11-09T09:00:00Z,27.6346,-97.2370,0.0,3.1,129.0,99.0,'11111222,11111222,11144222' 
TCOON,ioos:station:TCOON:005:1,2008-11-09T10:00:00Z,27.6346,-97.2370,0.0,4.0,127.0,99.0,'11111222,11111222,11144222' 
TCOON,ioos:station:TCOON:005:1,2008-11-09T11:00:00Z,27.6346,-97.2370,0.0,3.0,120.0,99.0,'11111222,11111222,11144222' 